RH
36 41 41 39 37 48 60 60 53 40 39 40 40 38 38 36 24 14 14 16 17 17 18 20 21 22 23 22 20 20 20 18 15 13 12 11 11 11 12 10 8 8 9 12
76 68 70 77 75 66 55 42 34 35 44 50 43 21 13 13 16 19 22 24 24 25 26 26 25 24 23 22 22 21 18 15 12 9 9 9 9 8 7 7 8 8 13 28
91 95 94 90 72 59 47 38 38 40 34 16 12 16 19 25 27 28 28 27 26 24 24 24 24 23 23 23 20 15 12 10 8 8 8 7 8 8 8 10 16 36 51 54
89 91 72 53 45 46 41 37 42 32 11 15 21 26 29 29 28 26 26 24 26 28 27 26 26 25 20 17 13 10 9 8 8 8 8 10 12 19 32 41 46 45 45 44
33 32 32 32 33 36 47 43 26 19 22 23 23 25 26 26 26 29 32 32 32 32 30 26 22 18 15 11 10 10 10 10 9 10 17 30 42 51 48 46 44 40 34 31
21 20 22 31 36 47 39 30 27 26 26 25 24 24 28 29 34 37 37 34 31 28 24 20 18 13 11 12 12 12 11 12 20 40 54 59 59 58 49 38 33 36 38 43
76 65 58 49 42 29 30 28 28 27 26 27 28 31 32 36 36 35 33 30 25 23 22 20 14 14 14 14 14 13 18 37 54 63 70 74 71 63 55 55 50 49 45 35
51 37 34 34 30 31 31 31 31 34 33 32 31 32 35 36 35 32 28 26 26 26 23 17 17 16 16 15 15 23 39 56 69 78 85 78 71 66 54 44 37 34 29 24
37 36 35 35 35 35 35 36 37 36 37 38 39 39 37 34 31 29 29 28 27 25 20 20 19 18 17 16 22 42 60 74 81 81 76 70 55 45 38 31 24 20 18 16
34 36 37 36 38 38 40 40 42 46 48 48 45 41 38 35 35 34 33 30 29 25 24 22 20 18 15 20 44 61 67 75 81 78 64 52 39 27 21 19 17 13 10 9
36 40 41 43 42 42 44 49 53 55 56 53 48 46 45 42 40 38 36 34 30 27 23 20 18 17 23 44 58 70 80 81 68 55 38 25 20 19 16 11 10 9 11 12
42 45 45 44 45 46 49 58 63 66 64 60 55 52 48 47 45 41 36 34 29 24 22 19 17 27 42 59 71 77 74 62 39 24 20 19 16 11 10 13 18 23 32 34
43 43 45 48 49 54 63 66 66 68 66 63 60 56 54 50 45 40 37 31 26 23 20 17 24 42 53 68 74 67 39 22 21 20 15 10 10 11 13 19 24 25 23 19
44 44 50 54 56 60 60 57 60 68 71 69 66 63 55 50 46 41 33 27 24 20 17 22 41 61 69 72 49 24 22 21 17 11 10 12 14 22 24 15 13 12 14 20
47 49 49 54 62 62 64 71 77 80 82 76 68 62 56 49 43 34 26 23 20 18 25 43 61 70 67 35 25 23 22 16 10 12 15 21 24 24 18 13 11 11 12 20
56 65 70 69 70 78 82 84 91 91 80 74 69 60 52 41 29 24 22 20 21 29 52 64 72 62 32 27 25 22 19 11 15 17 21 24 18 16 14 11 11 13 14 14
79 76 79 80 85 90 90 92 90 83 80 70 58 46 33 26 22 21 19 22 32 48 65 74 62 36 30 29 25 23 13 13 17 16 15 12 10 11 11 12 13 13 14 14
85 82 82 90 93 94 93 88 84 78 66 50 37 30 25 23 21 17 16 37 62 72 81 66 44 34 33 30 26 19 12 14 9 7 8 10 11 12 13 14 14 14 15 17
78 80 88 91 89 87 84 80 73 59 46 38 32 28 25 22 16 14 39 63 76 78 74 54 39 37 36 30 25 13 13 12 9 10 11 12 13 14 15 15 15 21 34 37
83 85 83 80 84 82 76 70 60 50 43 35 30 25 22 15 17 44 64 76 86 81 69 50 42 41 36 30 19 11 16 13 10 11 12 13 13 14 14 15 20 37 38 36
76 79 80 81 80 77 73 66 56 49 38 32 26 21 15 30 57 68 74 78 88 81 64 51 47 44 36 27 12 14 19 12 10 12 12 14 19 22 25 27 33 37 38 41
74 79 80 81 79 77 71 62 53 40 33 27 19 17 31 62 71 77 86 87 85 76 61 54 51 44 34 20 10 18 19 12 12 13 14 22 40 45 44 38 33 36 38 39
76 81 82 80 77 74 67 54 42 35 26 18 18 44 62 69 76 80 80 90 83 74 64 58 52 41 28 12 11 20 15 13 14 14 24 40 49 47 45 41 35 36 39 38
72 76 76 74 72 64 52 42 35 26 18 27 55 68 74 75 79 86 85 85 82 72 63 57 47 35 18 9 18 21 15 15 15 27 50 52 50 49 43 33 33 36 40 35
73 73 73 67 55 44 38 31 22 17 35 60 74 80 80 78 72 73 81 84 76 65 60 53 41 24 10 10 24 21 17 16 26 51 55 51 52 46 32 25 28 40 46 46
71 66 57 47 41 37 28 19 18 46 66 74 81 81 80 76 79 88 85 79 69 64 57 46 29 12 8 18 26 21 18 21 49 58 52 52 56 47 50 58 43 47 60 61
57 50 44 38 31 24 20 33 62 72 78 79 79 79 79 87 93 88 80 69 65 58 46 30 13 6 12 28 25 20 19 43 58 55 53 59 65 68 70 68 53 68 63 74
Wind_Speed
23 23 22 21 20 19 16 19 17 18 17 24 25 21 20 24 27 30 32 35 39 42 46 51 55 59 62 65 68 70 74 78 80 82 85 90 94 97 100 101 99 98 96 93
20 19 18 18 19 19 19 21 19 20 16 23 20 23 25 27 30 33 35 38 43 48 52 58 62 65 67 70 73 77 80 81 84 88 92 96 98 98 97 94 94 92 87 80
25 21 19 20 20 20 21 21 20 15 17 19 21 24 28 30 33 37 41 46 51 55 60 64 67 69 72 74 76 78 82 87 90 94 96 96 92 89 88 84 78 73 71 71
18 17 20 21 23 22 22 22 17 17 21 23 26 27 30 36 40 45 49 54 58 60 63 65 67 70 73 74 77 82 87 91 94 95 91 86 82 78 72 69 67 65 64 65
19 20 20 21 21 20 19 21 22 22 24 28 31 34 39 43 47 50 54 57 59 60 63 66 70 72 74 77 82 87 91 94 92 85 80 75 70 67 66 64 64 66 68 70
20 20 20 20 20 20 23 24 25 28 31 34 38 42 45 49 52 54 57 58 61 63 66 69 70 73 78 84 87 91 92 86 79 74 70 67 66 65 65 67 69 72 74 79
15 16 17 19 19 23 24 26 30 34 37 40 43 47 50 53 56 59 60 62 65 69 70 71 74 80 85 88 91 88 78 72 70 68 68 67 66 68 69 72 76 79 81 84
18 18 20 19 24 27 29 31 34 37 41 45 49 52 55 57 59 61 63 65 68 70 71 76 82 85 89 92 86 76 71 68 67 67 68 69 70 73 76 80 83 86 89 91
22 23 23 27 29 30 33 37 40 43 47 49 52 55 58 60 62 65 68 71 72 72 76 82 86 89 90 84 75 68 66 66 66 66 69 73 75 78 82 88 92 94 95 95
26 28 32 33 34 37 38 41 44 46 48 50 53 56 59 62 65 68 71 73 74 76 82 87 90 89 83 75 68 65 66 67 68 69 72 76 81 87 91 94 97 97 95 91
29 31 36 37 40 41 43 45 47 49 50 52 54 57 62 65 67 70 73 73 76 82 86 89 87 79 73 68 66 66 66 68 70 74 79 84 87 91 92 92 90 87 81 75
30 34 36 39 43 46 48 50 52 53 55 57 59 61 64 67 70 72 73 76 82 85 87 85 78 69 66 65 66 68 69 72 77 82 86 89 90 88 81 74 69 67 61 58
37 39 41 42 45 48 51 53 56 58 61 61 62 65 67 69 70 72 75 80 84 85 83 77 69 65 64 65 66 69 74 78 82 86 89 88 84 78 67 59 59 54 52 49
42 45 46 47 50 54 57 59 60 62 62 62 64 66 69 70 72 76 80 83 83 79 75 69 64 62 62 64 67 73 78 83 86 86 82 76 68 61 64 58 46 41 46 46
47 49 52 56 59 61 62 63 61 60 59 62 64 67 70 73 77 80 83 84 80 72 68 63 60 60 62 66 70 76 81 83 83 76 68 63 62 61 57 49 46 46 45 39
54 58 60 62 64 64 59 56 55 58 60 63 66 68 71 75 79 82 82 75 67 64 61 59 59 60 64 69 74 78 81 81 74 69 65 64 64 59 51 48 49 50 44 39
60 62 62 62 58 54 53 55 57 58 60 63 65 68 73 77 79 78 72 67 63 61 59 57 58 61 66 73 77 80 80 73 70 69 66 63 56 51 49 50 50 46 40 37
58 56 52 51 52 53 55 56 57 59 60 63 67 72 76 77 76 72 67 61 58 57 57 58 61 63 69 75 78 80 76 69 66 62 57 53 51 52 51 50 48 45 42 39
48 49 50 51 52 53 54 55 56 58 62 66 71 74 78 78 74 66 60 57 57 56 56 59 62 66 71 76 79 77 70 61 60 58 56 55 53 53 51 48 45 43 38 34
49 50 50 51 51 52 54 56 59 62 66 71 75 78 80 73 64 58 56 55 56 56 58 60 64 68 73 76 78 73 65 60 59 56 56 55 53 49 46 44 41 37 37 34
50 51 52 52 53 56 58 60 63 67 70 74 77 75 67 61 56 55 53 53 56 58 60 62 67 71 75 77 74 66 60 57 56 55 55 53 48 46 43 40 37 38 35 29
52 53 54 57 59 60 61 63 67 69 72 73 69 63 59 54 53 53 54 56 56 59 61 64 69 74 76 76 68 62 57 56 55 55 54 50 47 45 42 39 36 34 29 23
54 56 57 58 60 61 64 67 69 71 70 66 60 56 53 52 52 53 53 57 59 61 63 67 72 75 77 73 63 59 55 54 54 54 52 49 48 44 41 37 33 29 24 22
57 58 59 61 62 63 66 70 71 69 64 57 53 52 52 52 52 55 56 58 60 63 66 70 74 77 76 67 59 55 52 52 53 52 51 48 43 42 43 40 32 25 19 16
58 59 59 60 62 66 68 69 63 58 54 51 51 52 53 54 53 54 58 60 62 65 68 72 76 77 70 61 56 53 51 53 52 50 45 45 43 40 35 32 25 19 17 12
54 55 57 62 65 67 64 59 54 52 50 50 52 53 52 53 56 59 60 63 65 67 71 75 77 72 62 56 53 51 51 50 49 45 43 38 34 34 31 27 17 13 11 12
55 59 63 65 64 59 54 51 49 49 50 50 49 51 53 56 58 60 63 65 67 71 75 78 73 64 56 52 50 49 49 48 44 41 35 31 31 29 24 17 10 7 7 10
Wind_Direction
193 202 209 212 223 230 232 237 244 238 253 261 271 291 285 282 287 293 299 301 302 302 302 302 302 303 305 304 302 302 302 302 302 301 300 298 298 297 298 299 298 297 295 295
199 204 211 216 225 229 236 241 239 243 238 273 274 284 288 292 298 300 301 302 303 304 304 304 304 303 303 302 302 303 302 302 301 301 301 300 300 300 299 298 295 295 297 298
218 223 223 225 237 237 243 249 253 256 252 264 278 284 292 296 299 303 306 307 307 305 304 302 302 301 301 302 302 302 303 303 303 303 302 301 299 296 295 297 298 298 299 300
202 213 219 217 230 240 247 256 262 258 267 277 284 289 298 302 304 306 306 305 304 304 303 301 301 301 302 303 304 305 305 305 305 305 303 299 297 297 298 299 301 302 301 301
230 231 233 237 244 250 254 257 262 272 278 285 290 295 302 303 305 306 305 304 304 302 302 301 303 304 305 307 308 309 308 307 307 303 299 297 298 299 301 302 302 301 301 301
241 243 247 247 253 251 253 265 271 281 286 290 294 297 301 303 304 304 302 301 302 304 303 304 306 307 308 310 310 309 309 306 301 300 298 298 299 300 300 302 302 301 301 301
243 243 245 245 251 259 265 275 279 284 288 292 296 298 299 301 303 304 306 305 305 306 308 308 309 310 310 310 310 311 305 301 300 299 299 300 299 299 300 301 301 302 302 301
249 252 253 261 262 265 273 277 282 286 290 293 296 299 303 305 305 306 306 307 309 309 309 310 311 311 311 312 312 307 303 302 302 301 301 301 303 304 305 305 304 303 302 301
253 258 262 264 268 273 279 285 289 294 298 302 304 305 306 307 307 307 308 310 310 309 309 311 311 312 314 312 309 305 305 306 304 304 305 306 306 307 307 306 305 305 303 302
264 272 271 274 280 284 290 294 299 303 305 306 306 307 308 308 309 309 308 309 308 309 311 313 314 314 313 311 309 309 308 307 307 306 307 307 308 308 308 307 306 305 304 304
266 270 279 286 287 293 298 301 302 303 304 304 306 307 307 307 307 308 308 308 309 312 314 314 314 313 311 311 310 310 309 309 310 310 310 310 309 309 308 308 308 309 309 308
271 278 282 288 293 294 297 302 303 305 305 302 301 303 305 306 308 308 308 310 311 312 313 314 314 312 312 312 312 312 313 313 313 312 310 309 308 308 310 313 315 316 315 315
277 279 281 284 288 293 297 299 298 298 299 299 301 304 305 305 305 307 309 310 312 314 314 313 312 311 311 312 313 313 314 314 313 311 310 310 311 312 313 313 314 315 315 317
276 280 284 288 291 293 294 295 297 299 299 299 302 303 303 305 307 308 310 312 313 313 312 311 311 311 312 313 314 315 316 315 313 312 312 312 314 314 313 315 315 315 316 317
278 282 286 290 293 293 295 297 298 297 298 299 301 303 305 306 307 310 312 312 313 312 310 309 311 311 312 314 316 317 317 316 315 314 315 315 316 315 315 315 315 318 319 317
283 287 290 292 293 295 297 297 296 297 299 300 302 303 304 308 310 311 312 311 309 308 308 309 310 311 314 316 319 321 320 318 316 316 316 315 315 314 313 314 315 316 317 315
287 290 291 292 293 294 294 294 295 297 299 300 302 304 307 309 312 312 310 308 308 307 307 308 310 313 316 319 322 323 321 318 316 315 314 314 314 313 313 314 315 317 317 316
287 288 290 291 292 292 292 294 295 297 298 301 305 309 311 313 313 311 309 307 306 305 307 309 312 315 318 321 324 323 320 317 317 316 316 315 315 314 314 314 316 317 316 314
287 289 290 290 291 291 291 292 295 298 302 307 311 313 314 313 311 308 305 303 303 304 306 310 313 316 319 322 323 321 318 316 317 316 316 316 315 314 314 314 314 314 316 316
291 290 289 288 288 290 292 296 299 303 307 312 314 315 314 310 306 302 301 303 302 305 308 311 314 317 319 322 323 319 316 314 315 315 316 315 314 313 313 312 313 315 317 315
289 289 289 291 293 294 296 300 303 307 311 313 314 313 307 302 301 300 302 303 303 307 310 312 314 317 320 323 321 316 314 312 313 314 316 316 316 315 315 313 314 318 319 317
291 292 293 294 296 298 300 303 306 310 311 312 310 304 301 300 300 301 303 304 306 308 311 313 315 317 321 321 318 316 314 313 314 315 316 315 315 315 313 313 315 318 316 315
292 293 294 296 297 300 302 304 308 309 310 308 302 300 300 300 302 303 304 306 308 310 312 313 315 318 321 320 317 315 314 314 315 314 314 313 313 312 311 311 313 312 309 307
295 295 295 296 298 300 303 307 308 308 306 301 299 299 300 302 305 307 308 309 309 311 312 314 316 319 320 318 315 314 313 314 315 314 313 313 310 308 306 304 304 306 303 308
292 293 296 298 300 303 307 308 306 301 298 298 300 301 303 306 307 307 308 309 310 311 313 315 317 318 317 315 314 312 313 315 314 315 313 311 309 308 309 308 287 289 289 294
293 295 298 300 304 307 306 302 298 296 298 300 302 304 307 308 309 309 310 311 311 312 314 314 316 316 315 313 312 311 313 314 315 314 314 313 311 310 308 307 283 276 274 295
296 299 301 304 304 303 299 296 295 297 300 303 305 306 307 307 307 309 309 309 310 312 313 314 315 314 313 312 311 312 314 316 316 315 314 311 309 314 310 305 283 246 286 318